[[{"header":{"parameterUnit":"m.s-1","parameterCategory":1,"la1":30.2991,"la2":30.254,"lo1":-89.0895,"lo2":-89.0444,"dy":0.0017,"dx":0.0017,"nx":28,"ny":28,"refTime":"2024-05-18T21:00:00:Z","depth":0,"parameterNumber":2,"parameterNumberName":"U-component_of_WINDS"},"data":[0,0,0,0,0,0,0,0,0,0,0,0,0,0,0,0,0,0,0,0,0,0,0,0,0,0,0,0,0,0,0,0,0,0,0,0,0,0,0,0,0,0,0,0,0,0,0,0,0,0,0,0,0,0,0,0,0,0,0.2723,0.2723,0,0.2775,0.2776,0.2776,0.2651,0.2647,0.2643,0.2639,0.2703,0.2708,0.2713,0,0,0,0,0,0,0,0,0,0,0,0,0,0.2523,0.2527,0.2723,0.2723,0.2724,0.2775,0.2776,0.2777,0.2651,0.2646,0.2641,0.2637,0.2701,0.2707,0.2714,0,0,0,0,0,0,0,0,0,0,0,0,0,0.2596,0.2529,0.2723,0.2667,0.2663,0.2775,0.2776,0.2777,0.2652,0.2646,0.264,0.2635,0.2699,0.2707,0.2715,0.2886,0,0,0.274,0.2743,0,0,0,0,0,0,0,0,0.2592,0.2604,0.2675,0.2671,0.2667,0.27,0.2729,0.2814,0.2654,0.2657,0.2639,0.2632,0.2707,0.2714,0.2738,0.2889,0.2891,0.274,0.2745,0.2749,0.2751,0,0,0,0,0,0,0,0.2587,0.2601,0.2744,0.2676,0.2671,0.2643,0.2647,0.2744,0.2716,0.2656,0.2647,0.2654,0.2704,0.273,0.2738,0.2892,0.274,0.2747,0.2752,0.2756,0.3189,0.3195,0,0,0,0,0,0,0.2588,0.2598,0.2742,0.2745,0.2614,0.2651,0.2656,0.2696,0.2714,0.2711,0.2659,0.2648,0.2719,0.2729,0.274,0.2944,0.2749,0.2756,0.2761,0.3182,0.319,0.3198,0,0,0,0,0,0,0.2584,0.2602,0.274,0.2669,0.2684,0.2661,0.2707,0.27,0.2726,0.2716,0.2712,0.2691,0.2715,0.2729,0.285,0.2945,0.276,0.2768,0.3175,0.3185,0.3194,0.3353,0,0,0,0,0,0,0.2579,0.2602,0.2664,0.2671,0.2688,0.2847,0.2713,0.2705,0.2739,0.2725,0.2745,0.2743,0.2711,0.2839,0.2858,0.2953,0.2774,0.3166,0.3179,0.3191,0.3339,0.3367,0.3391,0,0,0,0,0,0.2572,0.2709,0.2668,0.2686,0.2766,0.2853,0.2863,0.2821,0.2747,0.2812,0.2806,0.2742,0.293,0.2852,0.2873,0.2972,0.316,0.3176,0.319,0.3328,0.3362,0.339,0,0,0,0,0,0,0.2717,0.2708,0.2664,0.2805,0.283,0.2831,0.2912,0.2858,0.2907,0.2893,0.2841,0.2847,0.298,0.2987,0.2901,0.3139,0.3033,0.3053,0.3131,0.3163,0.3188,0.3186,0.2781,0,0,0,0,0,0.2764,0.2833,0.2822,0.2949,0.2963,0.2935,0.2972,0.2937,0.2962,0.2973,0.2976,0.3006,0.3072,0.3117,0.3176,0.3337,0.3343,0.3416,0.3441,0.3462,0.3482,0.3571,0.3605,0.3247,0.3246,0.3246,0,0,0.2865,0.2869,0.2916,0.2978,0.2993,0.3069,0.2945,0.303,0.3086,0.2987,0.3102,0.3105,0.3135,0.3278,0.3341,0.3289,0.3581,0.3481,0.3498,0.3507,0.359,0.3624,0.3655,0.3257,0.3255,0.3253,0,0,0.3088,0.3095,0.3203,0.322,0.3244,0.3224,0.325,0.3259,0.3256,0.337,0.3298,0.3365,0.3478,0.3504,0.3531,0.3762,0.3708,0.3783,0.3921,0.4008,0.4036,0.4061,0.4148,0.418,0.3802,0.3802,0.3802,0,0.3211,0.3319,0.3266,0.3355,0.3387,0.3296,0.3406,0.3426,0.347,0.3495,0.3433,0.3575,0.3588,0.3738,0.3794,0.3818,0.3849,0.3784,0.4036,0.406,0.4083,0.4166,0.4198,0.3811,0.381,0.3809,0.3808,0,0.3471,0.3547,0.3631,0.3673,0.3713,0.3813,0.3778,0.3825,0.3787,0.3775,0.3893,0.3905,0.3968,0.3999,0.3963,0.4145,0.4111,0.4043,0.3937,0.4127,0.4205,0.4235,0.3825,0.3822,0.3819,0.3816,0,0,0.3791,0.38,0.3832,0.3851,0.387,0.3929,0.4026,0.4083,0.4127,0.4159,0.4242,0.4339,0.4276,0.4308,0.4274,0.435,0.4537,0.4273,0.4273,0.4326,0.4743,0.4798,0.4835,0.4498,0.4504,0.4508,0.4742,0,0.4014,0.4177,0.4132,0.4297,0.4369,0.4283,0.4368,0.439,0.4381,0.4443,0.4433,0.4505,0.4414,0.4433,0.4504,0.45,0.4621,0.4481,0.458,0.4584,0.4581,0.4874,0.4932,0.5153,0.4771,0.4776,0.478,0,0.4297,0.4339,0.4511,0.4519,0.4547,0.4624,0.4674,0.4732,0.4757,0.4745,0.478,0.473,0.4829,0.4717,0.4854,0.476,0.4797,0.4801,0.4808,0.4821,0.4698,0.49,0.5221,0.5257,0.4826,0.4822,0.4819,0,0.4519,0.4617,0.4734,0.4752,0.4763,0.482,0.4827,0.4845,0.4883,0.4927,0.4952,0.5008,0.504,0.5086,0.5054,0.4975,0.5199,0.5083,0.5196,0.5198,0.5253,0.5251,0.559,0.5267,0.5267,0.5266,0.5265,0,0.4777,0.4887,0.4833,0.4906,0.5027,0.4974,0.5097,0.5095,0.5112,0.5185,0.5112,0.5183,0.5134,0.5201,0.5176,0.5297,0.5311,0.5307,0.5301,0.5317,0.5318,0.5345,0.5331,0.5275,0.5273,0.5271,0.527,0,0.5047,0.5015,0.5137,0.5137,0.5139,0.523,0.5231,0.5299,0.5283,0.5376,0.5395,0.5372,0.5448,0.5418,0.5499,0.5482,0.5638,0.5608,0.563,0.5624,0.5741,0.5733,0.6114,0.6163,0.5804,0.5807,0.581,0,0.5216,0.5299,0.5307,0.5349,0.5361,0.543,0.5468,0.5419,0.5462,0.5496,0.5562,0.563,0.5682,0.5807,0.58,0.5862,0.5837,0.5966,0.5847,0.5861,0.5846,0.5844,0.5854,0.5993,0.5997,0.6,0.6003,0,0.5522,0.5502,0.5557,0.5609,0.5656,0.5694,0.5726,0.5766,0.5718,0.5771,0.5845,0.5886,0.5967,0.6038,0.6093,0.6104,0.6049,0.6039,0.607,0.6091,0.6102,0.6103,0.5701,0.6033,0.603,0.6027,0.6026,0.6025,0.575,0.582,0.5838,0.5903,0.5921,0.5954,0.6019,0.601,0.607,0.6131,0.6098,0.6187,0.6211,0.6278,0.6297,0.6368,0.6318,0.6361,0.6373,0.6386,0.6404,0.6085,0.6377,0.6376,0.6375,0.6375,0.6374,0,0.6056,0.6062,0.6123,0.617,0.6222,0.6159,0.6192,0.6241,0.6319,0.6344,0.6396,0.6484,0.6552,0.6549,0.6612,0.667,0.6646,0.6689,0.6687,0.6692,0.6442,0.6412,0.6707,0.6707,0.6707,0.6707,0.6707,0.6707,0.6222,0.6339,0.6321,0.6448,0.6453,0.6537,0.6562,0.6593,0.6613,0.6713,0.6768,0.6764,0.6779,0.6843,0.6904,0.6901,0.693,0.6984,0.6973,0.6741,0.6709,0.6677,0.6649,0.6989,0.699,0.7217,0.722,0.7221]},{"header":{"parameterUnit":"m.s-1","parameterCategory":1,"la1":30.2991,"la2":30.254,"lo1":-89.0895,"lo2":-89.0444,"dy":0.0017,"dx":0.0017,"nx":28,"ny":28,"refTime":"2024-05-18T21:00:00:Z","depth":0,"parameterNumber":3,"parameterNumberName":"V-component_of_WINDS"},"data":[0,0,0,0,0,0,0,0,0,0,0,0,0,0,0,0,0,0,0,0,0,0,0,0,0,0,0,0,0,0,0,0,0,0,0,0,0,0,0,0,0,0,0,0,0,0,0,0,0,0,0,0,0,0,0,0,0,0,4.2316,4.2318,0,4.2465,4.2467,4.2469,4.2571,4.2572,4.2573,4.2573,4.2717,4.2721,4.2724,0,0,0,0,0,0,0,0,0,0,0,0,0,4.2106,4.211,4.2316,4.2318,4.232,4.2465,4.2467,4.2469,4.2571,4.2572,4.2573,4.2574,4.2716,4.272,4.2724,0,0,0,0,0,0,0,0,0,0,0,0,0,4.222,4.2111,4.2315,4.2388,4.2396,4.2465,4.2467,4.247,4.2571,4.2572,4.2573,4.2574,4.2715,4.272,4.2724,4.273,0,0,4.2739,4.2741,0,0,0,0,0,0,0,0,4.2214,4.2228,4.2376,4.2383,4.2392,4.2501,4.2446,4.2557,4.257,4.2504,4.2573,4.2575,4.2644,4.2654,4.268,4.2737,4.2743,4.2739,4.2742,4.2744,4.2745,0,0,0,0,0,0,0,4.2206,4.2222,4.2375,4.2377,4.2388,4.2409,4.2427,4.2468,4.2565,4.251,4.2518,4.2535,4.2649,4.2675,4.2684,4.2745,4.2739,4.2743,4.2746,4.2748,4.2808,4.2807,0,0,0,0,0,0,4.2188,4.2215,4.237,4.2379,4.2304,4.2412,4.2432,4.2465,4.2565,4.2582,4.2533,4.2539,4.2666,4.2678,4.2689,4.27,4.2744,4.2748,4.2751,4.2809,4.2808,4.2806,0,0,0,0,0,0,4.2183,4.2201,4.2364,4.2299,4.2322,4.2414,4.2451,4.2467,4.2494,4.2583,4.26,4.2543,4.2668,4.2683,4.2718,4.2706,4.275,4.2755,4.281,4.2809,4.2807,4.2722,0,0,0,0,0,0,4.2177,4.2199,4.2205,4.2299,4.2325,4.2394,4.245,4.2469,4.2503,4.2511,4.2597,4.2612,4.267,4.2711,4.2723,4.2713,4.2758,4.2812,4.281,4.2808,4.2726,4.2717,4.271,0,0,0,0,0,4.2169,4.2174,4.2205,4.2223,4.2335,4.2394,4.2408,4.2477,4.2501,4.2506,4.2562,4.2609,4.2705,4.2714,4.2728,4.272,4.2813,4.281,4.2808,4.273,4.2719,4.271,0,0,0,0,0,0,4.2075,4.2188,4.2223,4.226,4.2317,4.2411,4.242,4.2464,4.2513,4.2519,4.2599,4.2617,4.2644,4.2685,4.2693,4.2727,4.2764,4.2764,4.27,4.2691,4.2682,4.2672,4.2762,0,0,0,0,0,4.2059,4.2101,4.2196,4.2218,4.2245,4.2327,4.2355,4.2403,4.2463,4.2487,4.2547,4.2601,4.2642,4.2669,4.2713,4.2732,4.2749,4.2732,4.2724,4.2717,4.2716,4.2724,4.2717,4.2797,4.2797,4.2797,0,0,4.2026,4.2093,4.2114,4.2201,4.2251,4.2287,4.2347,4.2384,4.2411,4.2492,4.253,4.2574,4.2639,4.2666,4.268,4.2701,4.2697,4.2713,4.2707,4.271,4.2721,4.2713,4.2706,4.2796,4.2796,4.2796,0,0,4.1985,4.2041,4.2065,4.2112,4.2186,4.224,4.2244,4.2331,4.2364,4.2404,4.2464,4.2494,4.2566,4.2609,4.264,4.2608,4.2651,4.2619,4.2577,4.2584,4.2577,4.2572,4.2558,4.2552,4.2618,4.2618,4.2617,0,4.1934,4.1996,4.207,4.2103,4.2138,4.2213,4.2235,4.2276,4.2359,4.2379,4.2402,4.2491,4.254,4.2575,4.2567,4.259,4.2595,4.2611,4.2573,4.2568,4.2564,4.2551,4.2546,4.2613,4.2614,4.2614,4.2615,0,4.1927,4.1968,4.1977,4.2057,4.2092,4.2119,4.2193,4.2219,4.2261,4.2311,4.2346,4.2407,4.2463,4.2475,4.2517,4.2514,4.2524,4.2558,4.2597,4.2551,4.254,4.2536,4.2607,4.2608,4.261,4.2611,0,0,4.1836,4.1953,4.1955,4.199,4.2074,4.2105,4.2132,4.2188,4.2207,4.226,4.2282,4.2338,4.2369,4.2404,4.2451,4.2457,4.2423,4.249,4.2493,4.2474,4.2419,4.2392,4.2386,4.2452,4.2451,4.2451,4.2413,0,4.1806,4.1863,4.1928,4.1961,4.1996,4.2065,4.2088,4.2139,4.2185,4.2218,4.2267,4.2304,4.2344,4.2365,4.2374,4.2425,4.2413,4.2429,4.2469,4.247,4.2451,4.2381,4.2354,4.2316,4.2409,4.2409,4.2408,0,4.1781,4.1831,4.1867,4.1944,4.1961,4.1981,4.2035,4.2067,4.2124,4.2156,4.2192,4.2242,4.2269,4.2302,4.2338,4.2347,4.2367,4.2393,4.2393,4.24,4.2436,4.2383,4.2306,4.2299,4.2403,4.2403,4.2404,0,4.1707,4.1783,4.1814,4.1842,4.1933,4.1944,4.1982,4.204,4.2068,4.2113,4.2131,4.2178,4.2203,4.2236,4.2294,4.2314,4.2322,4.2362,4.2346,4.2344,4.2346,4.2345,4.2268,4.2359,4.2359,4.2359,4.2359,0,4.1667,4.1686,4.1782,4.1801,4.1821,4.1893,4.191,4.1954,4.2004,4.2029,4.209,4.2111,4.2188,4.2216,4.2261,4.2282,4.2293,4.2317,4.2328,4.2311,4.2308,4.2325,4.2329,4.2358,4.2358,4.2358,4.2358,0,4.159,4.1655,4.1693,4.1774,4.1795,4.1806,4.1874,4.1892,4.1939,4.1969,4.198,4.2052,4.2089,4.215,4.2204,4.2234,4.2245,4.2265,4.2226,4.2233,4.2214,4.2214,4.2146,4.2139,4.2234,4.2233,4.2232,0,4.1561,4.1577,4.1659,4.1681,4.1717,4.1751,4.1779,4.1847,4.1873,4.1936,4.1945,4.1987,4.2024,4.2077,4.2133,4.2172,4.2194,4.2167,4.22,4.2181,4.2191,4.2189,4.2189,4.2159,4.2158,4.2157,4.2156,0,4.15,4.153,4.157,4.1619,4.1651,4.1693,4.1737,4.175,4.1827,4.1852,4.1891,4.1919,4.1973,4.2011,4.2058,4.2093,4.2135,4.2144,4.2143,4.2125,4.2101,4.2111,4.2204,4.2146,4.2147,4.2148,4.2148,4.2149,4.1446,4.1461,4.152,4.1561,4.1601,4.1639,4.1659,4.1707,4.1741,4.1792,4.1829,4.1863,4.1914,4.1982,4.2013,4.2038,4.2058,4.2056,4.2055,4.2053,4.2046,4.2097,4.2047,4.2047,4.2048,4.2048,4.2048,0,4.1387,4.1427,4.1463,4.1523,4.1553,4.1591,4.164,4.1662,4.1692,4.1737,4.1771,4.1812,4.1849,4.1905,4.1945,4.1954,4.1974,4.1961,4.1961,4.1968,4.2027,4.2024,4.1944,4.1944,4.1944,4.1944,4.1944,4.1944,4.136,4.1387,4.1423,4.1468,4.1508,4.1544,4.1568,4.1601,4.1637,4.1681,4.1712,4.1749,4.1796,4.1839,4.1872,4.1887,4.1898,4.1879,4.19,4.1954,4.1964,4.1973,4.1971,4.1881,4.1881,4.1839,4.1838,4.1838]}]]